Location: West Chester
(39.9610°N, 75.6060°W)
Time: 17:00:33
(UTC-04:00)

ACS3 Solar Sail - Visible Passes

Search period start: 19 September 2024 00:00
Search period end: 29 September 2024 00:00
Orbit: 970 x 1035 km, 97.4° (Epoch: 18 September)

Date Brightness Start Highest point End Pass type
(mag) Time Alt. Az. Time Alt. Az. Time Alt. Az.
19 Sep 3.5 19:32:10 10° E 19:35:27 15° ENE 19:38:43 10° NNE visible
19 Sep 1.8 21:16:11 43° SSE 21:18:30 87° ENE 21:24:57 10° N visible
19 Sep 4.3 23:01:26 12° WSW 23:03:14 14° W 23:06:19 10° WNW visible
20 Sep 2.9 20:04:20 16° ESE 20:07:51 26° ENE 20:13:00 10° NNE visible
20 Sep 2.5 21:49:35 40° SW 21:51:27 52° W 21:57:43 10° NNW visible
21 Sep 2.2 20:37:41 30° ESE 20:40:24 46° ENE 20:46:28 10° N visible
21 Sep 3.5 22:22:55 25° WSW 22:24:33 28° W 22:29:57 10° NW visible
22 Sep 3.5 19:27:04 10° E 19:30:05 14° ENE 19:33:06 10° NNE visible
22 Sep 1.8 21:10:59 46° SSE 21:13:05 83° ENE 21:19:31 10° N visible
22 Sep 4.2 22:56:14 13° WSW 22:57:45 15° W 23:01:08 10° NW visible
23 Sep 2.9 19:59:01 17° ESE 20:02:21 25° ENE 20:07:21 10° NNE visible
23 Sep 2.4 21:44:15 44° SW 21:45:53 55° W 21:52:10 10° NNW visible
24 Sep 2.2 20:32:15 31° ESE 20:34:45 44° ENE 20:40:44 10° N visible
24 Sep 3.4 22:17:28 27° WSW 22:18:49 30° W 22:24:19 10° NNW visible
25 Sep 3.6 19:21:40 10° E 19:24:20 13° ENE 19:27:00 10° NNE visible
25 Sep 1.8 21:05:25 49° SSE 21:07:17 79° ENE 21:13:41 10° N visible
25 Sep 4.1 22:50:39 15° W 22:51:54 16° W 22:55:32 10° NW visible
26 Sep 3.0 19:53:20 16° ESE 19:56:27 24° ENE 20:01:18 10° NNE visible
26 Sep 2.3 21:38:33 48° SW 21:39:57 58° W 21:46:14 10° NNW visible
27 Sep 2.3 20:26:25 31° ESE 20:28:43 41° ENE 20:34:36 10° N visible
27 Sep 3.3 22:11:38 30° WSW 22:12:43 32° W 22:18:19 10° NNW visible
28 Sep 3.6 19:16:00 10° ENE 19:18:13 12° ENE 19:20:25 10° NE visible
28 Sep 1.8 20:59:28 52° SE 21:01:06 74° ENE 21:07:28 10° N visible
28 Sep 4.1 22:44:41 16° W 22:45:38 17° W 22:49:33 10° NW visible
